Location: Unspecified
(45.3712°N, 0.6436°E)
Time: 21:43:40
(UTC+02:00)

ISS - Pass Details

Date: 15 July 2018
Orbit: 402 x 408 km, 51.6° (Epoch: 17 July)

Event Time Altitude Azimuth Distance (km) Brightness Sun altitude
Rises 04:56:14 0° 293° (WNW) 2,332 -0.1 -12.4°
Reaches altitude 10° 04:58:30 10° 306° (NW) 1,471 -1.0 -12.2°
Maximum altitude 05:01:25 28° 8° (N) 802 -1.7 -11.8°
Drops below altitude 10° 05:04:20 10° 70° (ENE) 1,471 0.1 -11.5°
Sets 05:06:36 0° 82° (E) 2,332 0.9 -11.2°
